FW6905 Weather Reports


Display with metric or nautical units.
time (UTC)temp
F
wind
direction
speed
MPH
gust
MPH
rain 1hr
in
rain 24hr
in
rain mn
in
humidity
%
barometer
mb
20260831154007 87 267 4.0 6.0 0.00 0.00 0.00 43 1015.7
20260831153507 87 276 3.0 6.0 0.00 0.00 0.00 43 1015.7
20260831153007 87 297 2.0 6.0 0.00 0.00 0.00 43 1015.7
20260831152507 87 278 4.0 8.0 0.00 0.00 0.00 42 1015.7
20260831152006 87 261 2.0 8.0 0.00 0.00 0.00 42 1015.7
20260831151507 87 268 4.0 8.0 0.00 0.00 0.00 42 1015.7
20260831150506 87 247 2.0 5.0 0.00 0.00 0.00 42 1014.7
20260831145006 87 261 5.0 9.0 0.00 0.00 0.00 42 1015.7
20260831144506 87 260 5.0 9.0 0.00 0.00 0.00 42 1015.7
20260831144006 87 231 7.0 9.0 0.00 0.00 0.00 42 1014.7
20260831142006 88 253 3.0 9.0 0.00 0.00 0.00 42 1014.7
20260831141507 88 271 6.0 9.0 0.00 0.00 0.00 42 1014.7
20260831141006 88 270 5.0 7.0 0.00 0.00 0.00 42 1015.7
20260831140507 88 270 2.0 9.0 0.00 0.00 0.00 41 1015.7
20260831140007 88 271 4.0 9.0 0.00 0.00 0.00 41 1015.7
20260831135007 88 295 4.0 11.0 0.00 0.00 0.00 40 1015.7
20260831134506 88 276 3.0 9.0 0.00 0.00 0.00 41 1015.7
20260831133506 88 275 4.0 8.0 0.00 0.00 0.00 41 1014.7
20260831133007 88 267 2.0 11.0 0.00 0.00 0.00 41 1014.7
20260831132506 88 259 5.0 11.0 0.00 0.00 0.00 41 1015.7
20260831132006 89 265 6.0 11.0 0.00 0.00 0.00 41 1015.7
20260831131506 89 286 7.0 11.0 0.00 0.00 0.00 41 1015.7
20260831131006 89 292 4.0 11.0 0.00 0.00 0.00 41 1015.7
20260831130506 89 270 4.0 11.0 0.00 0.00 0.00 41 1015.7
20260831130007 89 261 4.0 11.0 0.00 0.00 0.00 40 1015.7
20260831125506 90 268 6.0 11.0 0.00 0.00 0.00 39 1015.7
20260831125006 90 266 7.0 9.0 0.00 0.00 0.00 39 1015.7
20260831124506 90 267 5.0 9.0 0.00 0.00 0.00 39 1015.7
20260831124006 90 267 2.0 6.0 0.00 0.00 0.00 40 1015.7
20260831123507 90 227 4.0 6.0 0.00 0.00 0.00 40 1015.7
20260831123006 90 225 2.0 6.0 0.00 0.00 0.00 40 1015.7
20260831122506 90 255 3.0 6.0 0.00 0.00 0.00 41 1015.7
20260831122006 90 243 2.0 8.0 0.00 0.00 0.00 40 1015.7
20260831121506 90 254 5.0 8.0 0.00 0.00 0.00 38 1015.7
20260831121007 90 259 5.0 9.0 0.00 0.00 0.00 40 1015.7
20260831120506 90 231 5.0 9.0 0.00 0.00 0.00 40 1015.7
20260831120007 90 186 2.0 8.0 0.00 0.00 0.00 40 1015.7
20260831115006 90 213 5.0 7.0 0.00 0.00 0.00 40 1015.7
20260831114507 90 219 2.0 5.0 0.00 0.00 0.00 40 1015.7
20260831114006 90 211 2.0 5.0 0.00 0.00 0.00 42 1015.7
20260831113506 90 197 3.0 8.0 0.00 0.00 0.00 41 1015.7
20260831113006 89 211 3.0 8.0 0.00 0.00 0.00 43 1015.7
20260831112507 89 268 2.0 8.0 0.00 0.00 0.00 44 1016.7
20260831112006 89 281 6.0 8.0 0.00 0.00 0.00 44 1016.7
20260831111506 89 240 3.0 6.0 0.00 0.00 0.00 44 1016.7
20260831111007 88 270 2.0 6.0 0.00 0.00 0.00 44 1015.7
20260831110506 88 283 3.0 6.0 0.00 0.00 0.00 45 1015.7
20260831110006 88 283 2.0 8.0 0.00 0.00 0.00 45 1015.7
20260831105506 88 285 2.0 9.0 0.00 0.00 0.00 46 1016.7
20260831105006 88 283 3.0 9.0 0.00 0.00 0.00 47 1016.7
20260831104006 87 307 3.0 6.0 0.00 0.00 0.00 47 1016.7
20260831103506 87 296 4.0 7.0 0.00 0.00 0.00 47 1016.7
20260831103006 87 288 4.0 7.0 0.00 0.00 0.00 49 1016.7
20260831102506 87 271 1.0 6.0 0.00 0.00 0.00 49 1016.7
20260831102007 87 279 1.0 9.0 0.00 0.00 0.00 49 1016.7
20260831101506 86 282 6.0 9.0 0.00 0.00 0.00 50 1016.7
20260831101006 86 226 2.0 5.0 0.00 0.00 0.00 50 1016.7
20260831100506 86 178 1.0 2.0 0.00 0.00 0.00 51 1016.7
20260831100006 85 163 1.0 3.0 0.00 0.00 0.00 51 1016.7
20260831095006 85 169 2.0 3.0 0.00 0.00 0.00 50 1016.7
20260831094506 84 301 0.0 2.0 0.00 0.00 0.00 51 1016.7
20260831094006 84 176 2.0 2.0 0.00 0.00 0.00 52 1016.7
20260831093506 84 153 1.0 4.0 0.00 0.00 0.00 52 1016.7
20260831092507 83 130 2.0 4.0 0.00 0.00 0.00 53 1017.7
20260831092006 83 151 1.0 4.0 0.00 0.00 0.00 53 1017.7
20260831091006 82 153 3.0 5.0 0.00 0.00 0.00 54 1017.7
20260831085006 80 162 3.0 5.0 0.00 0.00 0.00 57 1017.7
20260831084506 80 152 3.0 5.0 0.00 0.00 0.00 56 1017.7
20260831084006 80 152 3.0 6.0 0.00 0.00 0.00 57 1017.7
20260831083506 79 149 4.0 6.0 0.00 0.00 0.00 58 1017.7
20260831083006 79 134 5.0 5.0 0.00 0.00 0.00 59 1017.7
20260831082506 78 143 2.0 6.0 0.00 0.00 0.00 60 1017.7
20260831082006 78 149 3.0 6.0 0.00 0.00 0.00 60 1017.7
20260831081506 78 125 4.0 6.0 0.00 0.00 0.00 60 1017.7
20260831081006 77 101 3.0 4.0 0.00 0.00 0.00 61 1017.7
20260831080506 76 110 2.0 4.0 0.00 0.00 0.00 63 1017.7
20260831080006 76 126 3.0 5.0 0.00 0.00 0.00 64 1017.7
20260831075506 76 121 2.0 6.0 0.00 0.00 0.00 65 1017.7
20260831074506 75 114 2.0 6.0 0.00 0.00 0.00 66 1017.7
20260831074006 74 109 4.0 6.0 0.00 0.00 0.00 67 1017.7
20260831073506 74 87 2.0 6.0 0.00 0.00 0.00 70 1017.7
20260831072506 73 95 3.0 8.0 0.00 0.00 0.00 70 1017.7
20260831072006 73 104 2.0 8.0 0.00 0.00 0.00 72 1017.7
20260831071506 72 113 2.0 6.0 0.00 0.00 0.00 73 1017.7
20260831071006 72 112 3.0 6.0 0.00 0.00 0.00 74 1017.7
20260831070506 71 107 2.0 5.0 0.00 0.00 0.00 78 1017.7
20260831065506 70 92 3.0 7.0 0.00 0.00 0.00 77 1017.7
20260831064506 69 97 5.0 7.0 0.00 0.00 0.00 84 1017.7
20260831064006 69 91 4.0 6.0 0.00 0.00 0.00 85 1017.7
20260831062506 67 146 3.0 5.0 0.00 0.00 0.00 88 1017.7
20260831062006 67 158 1.0 4.0 0.00 0.00 0.00 89 1017.7
20260831061506 66 135 2.0 4.0 0.00 0.00 0.00 90 1017.7
20260831061007 66 120 3.0 4.0 0.00 0.00 0.00 90 1016.7
20260831060506 66 121 1.0 5.0 0.00 0.00 0.00 92 1016.7
20260831060006 65 118 2.0 5.0 0.00 0.00 0.00 92 1016.7
20260831055506 65 124 2.0 5.0 0.00 0.00 0.00 92 1017.7
20260831055006 65 125 2.0 3.0 0.00 0.00 0.00 92 1017.7
20260831054506 64 127 1.0 3.0 0.00 0.00 0.00 93 1017.7
20260831053505 64 0 0.0 0.0 0.00 0.00 0.00 89 1017.7
20260831053006 63 0 0.0 0.0 0.00 0.00 0.00 89 1017.7
20260831052505 63 0 0.0 0.0 0.00 0.00 0.00 89 1017.7
20260831052006 63 0 0.0 0.0 0.00 0.00 0.00 90 1017.7
20260831051505 63 0 0.0 0.0 0.00 0.00 0.00 89 1017.7
20260831050506 63 0 0.0 0.0 0.00 0.00 0.00 89 1017.7
20260831050006 63 0 0.0 0.0 0.00 0.00 0.00 89 1017.7
20260831045506 63 0 0.0 0.0 0.00 0.00 0.00 89 1016.7
20260831045006 63 0 0.0 0.0 0.00 0.00 0.00 89 1016.7
20260831044006 63 0 0.0 0.0 0.00 0.00 0.00 89 1016.7
20260831043506 63 0 0.0 0.0 0.00 0.00 0.00 88 1016.7
20260831043006 63 0 0.0 0.0 0.00 0.00 0.00 88 1016.7
20260831042506 63 0 0.0 0.0 0.00 0.00 0.00 88 1016.7
20260831042005 63 0 0.0 0.0 0.00 0.00 0.00 88 1016.7
20260831041506 63 0 0.0 0.0 0.00 0.00 0.00 88 1016.7
20260831040506 64 0 0.0 0.0 0.00 0.00 0.00 88 1016.7
20260831040005 64 0 0.0 0.0 0.00 0.00 0.00 88 1016.7
20260831035506 64 0 0.0 0.0 0.00 0.00 0.00 88 1016.7
20260831034506 64 0 0.0 0.0 0.00 0.00 0.00 88 1016.7
20260831034005 64 270 0.0 1.0 0.00 0.00 0.00 88 1017.7
20260831033506 64 307 0.0 2.0 0.00 0.00 0.00 88 1017.7
20260831033006 64 314 1.0 2.0 0.00 0.00 0.00 87 1017.7
20260831032505 64 0 0.0 0.0 0.00 0.00 0.00 87 1016.7
20260831032006 64 0 0.0 0.0 0.00 0.00 0.00 87 1016.7
20260831031506 64 0 0.0 0.0 0.00 0.00 0.00 88 1016.7
20260831030506 64 0 0.0 0.0 0.00 0.00 0.00 87 1017.7
20260831025506 64 0 0.0 0.0 0.00 0.00 0.00 87 1017.7
20260831025006 64 0 0.0 0.0 0.00 0.00 0.00 87 1017.7
20260831024506 64 0 0.0 0.0 0.00 0.00 0.00 87 1017.7
20260831024006 64 314 0.0 2.0 0.00 0.00 0.00 87 1017.7
20260831023505 64 314 0.0 2.0 0.00 0.00 0.00 87 1017.7
20260831023006 64 314 0.0 1.0 0.00 0.00 0.00 87 1017.7
20260831022506 64 0 0.0 0.0 0.00 0.00 0.00 86 1017.7
20260831021506 64 0 0.0 0.0 0.00 0.00 0.00 87 1017.7
20260831021006 64 0 0.0 0.0 0.00 0.00 0.00 86 1017.7
20260831020006 64 0 0.0 0.0 0.00 0.00 0.00 87 1017.7
20260831015006 64 315 0.0 1.0 0.00 0.00 0.00 86 1017.7
20260831014006 65 0 0.0 0.0 0.00 0.00 0.00 86 1017.7
20260831013506 65 203 0.0 2.0 0.00 0.00 0.00 86 1017.7
20260831012506 65 318 0.0 2.0 0.00 0.00 0.00 86 1017.7
20260831012005 65 334 1.0 2.0 0.00 0.00 0.00 85 1017.7
20260831010506 65 68 0.0 1.0 0.00 0.00 0.00 85 1017.7
20260831010005 65 0 0.0 0.0 0.00 0.00 0.00 85 1017.7
20260831005006 65 0 0.0 0.0 0.00 0.00 0.00 85 1017.7
20260831004505 65 329 0.0 2.0 0.00 0.00 0.00 85 1017.7
20260831004006 65 329 0.0 2.0 0.00 0.00 0.00 85 1017.7
20260831003505 65 337 0.0 2.0 0.00 0.00 0.00 85 1017.7
20260831003005 65 28 0.0 2.0 0.00 0.00 0.00 85 1017.7
20260831002506 65 56 0.0 2.0 0.00 0.00 0.00 85 1017.7
20260831002005 65 328 0.0 2.0 0.00 0.00 0.00 85 1017.7
20260831001506 65 356 0.0 2.0 0.00 0.00 0.00 85 1017.7
20260831000005 65 158 0.0 2.0 0.00 0.00 0.00 85 1017.7
20260830235506 65 158 0.0 2.0 0.00 0.00 0.00 84 1017.7
20260830235006 66 312 0.0 2.0 0.00 0.00 0.00 85 1017.7
20260830234506 66 314 0.0 2.0 0.00 0.00 0.00 84 1017.7
20260830234006 66 46 0.0 2.0 0.00 0.00 0.00 84 1017.7
20260830233505 66 46 0.0 2.0 0.00 0.00 0.00 84 1017.7
20260830233006 66 45 0.0 2.0 0.00 0.00 0.00 84 1017.7
20260830232505 66 45 0.0 2.0 0.00 0.00 0.00 84 1016.7
20260830232006 66 314 0.0 1.0 0.00 0.00 0.00 84 1016.7
20260830231505 66 314 0.0 2.0 0.00 0.00 0.00 84 1016.7
20260830231006 66 314 0.0 2.0 0.00 0.00 0.00 84 1017.7
20260830230506 66 314 1.0 2.0 0.00 0.00 0.00 84 1017.7
20260830230006 66 0 0.0 0.0 0.00 0.00 0.00 82 1017.7
20260830225506 66 0 0.0 0.0 0.00 0.00 0.00 82 1016.7
20260830225006 66 314 0.0 2.0 0.00 0.00 0.00 81 1016.7
20260830224006 66 322 1.0 2.0 0.00 0.00 0.00 81 1017.7
20260830223006 66 337 0.0 2.0 0.00 0.00 0.00 81 1017.7
20260830222505 67 337 0.0 2.0 0.00 0.00 0.00 80 1017.7
20260830222006 67 338 0.0 2.0 0.00 0.00 0.00 80 1017.7
20260830221505 67 337 0.0 2.0 0.00 0.00 0.00 80 1017.7
20260830221006 67 337 0.0 2.0 0.00 0.00 0.00 80 1018.8
20260830220506 67 337 0.0 2.0 0.00 0.00 0.00 80 1018.8
20260830215505 67 0 0.0 0.0 0.00 0.00 0.00 79 1016.7
20260830214505 67 0 0.0 0.0 0.00 0.00 0.00 79 1016.7
20260830214006 67 0 0.0 0.0 0.00 0.00 0.00 79 1016.7
20260830213506 67 314 0.0 2.0 0.00 0.00 0.00 80 1016.7
20260830213006 67 314 0.0 2.0 0.00 0.00 0.00 79 1016.7
20260830212006 68 0 0.0 0.0 0.00 0.00 0.00 78 1018.8
20260830211006 68 59 0.0 2.0 0.00 0.00 0.00 76 1017.7
20260830210505 68 135 0.0 2.0 0.00 0.00 0.00 76 1017.7
20260830205505 68 127 0.0 2.0 0.00 0.00 0.00 76 1017.7
20260830205006 68 90 0.0 2.0 0.00 0.00 0.00 75 1017.7
20260830204505 69 90 0.0 2.0 0.00 0.00 0.00 74 1017.7
20260830204006 69 92 2.0 3.0 0.00 0.00 0.00 75 1017.7
20260830203506 69 81 0.0 3.0 0.00 0.00 0.00 73 1017.7
20260830203006 69 62 2.0 3.0 0.00 0.00 0.00 73 1017.7
20260830202005 69 68 0.0 2.0 0.00 0.00 0.00 73 1017.7
20260830201005 69 68 0.0 2.0 0.00 0.00 0.00 72 1017.7
20260830200506 70 68 0.0 2.0 0.00 0.00 0.00 72 1017.7
20260830200006 70 68 0.0 2.0 0.00 0.00 0.00 71 1017.7
20260830195505 70 68 0.0 2.0 0.00 0.00 0.00 70 1017.7
20260830195006 70 68 0.0 2.0 0.00 0.00 0.00 70 1017.7
20260830194505 70 68 0.0 2.0 0.00 0.00 0.00 70 1017.7
20260830194006 70 68 0.0 1.0 0.00 0.00 0.00 69 1017.7
20260830193506 71 68 0.0 2.0 0.00 0.00 0.00 69 1017.7
20260830193005 71 68 0.0 2.0 0.00 0.00 0.00 69 1017.7
20260830192506 71 68 0.0 2.0 0.00 0.00 0.00 68 1017.7
20260830192006 71 79 0.0 2.0 0.00 0.00 0.00 67 1017.7
20260830191505 71 88 1.0 2.0 0.00 0.00 0.00 67 1017.7
20260830191006 72 90 1.0 2.0 0.00 0.00 0.00 66 1017.7
20260830190505 72 68 0.0 1.0 0.00 0.00 0.00 66 1017.7
20260830190006 72 68 0.0 2.0 0.00 0.00 0.00 64 1017.7
20260830185506 72 68 0.0 2.0 0.00 0.00 0.00 64 1016.7
20260830184506 73 68 0.0 2.0 0.00 0.00 0.00 64 1016.7
20260830183506 74 80 0.0 3.0 0.00 0.00 0.00 62 1016.7
20260830183005 74 88 2.0 4.0 0.00 0.00 0.00 61 1016.7
20260830182506 74 79 1.0 4.0 0.00 0.00 0.00 60 1016.7
20260830181506 75 45 0.0 2.0 0.00 0.00 0.00 59 1016.7
20260830181005 75 45 2.0 2.0 0.00 0.00 0.00 58 1015.7
20260830180506 76 45 0.0 2.0 0.00 0.00 0.00 58 1015.7
20260830180005 76 59 1.0 2.0 0.00 0.00 0.00 58 1015.7
20260830175505 77 65 0.0 2.0 0.00 0.00 0.00 57 1015.7
20260830174505 77 81 0.0 2.0 0.00 0.00 0.00 54 1015.7
20260830173005 79 44 1.0 2.0 0.00 0.00 0.00 53 1015.7
20260830172506 79 45 0.0 2.0 0.00 0.00 0.00 52 1015.7
20260830172005 80 37 1.0 2.0 0.00 0.00 0.00 52 1015.7
20260830171506 80 23 2.0 2.0 0.00 0.00 0.00 50 1015.7
20260830171005 81 13 1.0 2.0 0.00 0.00 0.00 48 1015.7
20260830170506 81 31 0.0 2.0 0.00 0.00 0.00 47 1015.7
20260830170005 82 27 2.0 2.0 0.00 0.00 0.00 47 1015.7
20260830165505 82 15 0.0 2.0 0.00 0.00 0.00 46 1014.7
20260830164006 83 359 1.0 2.0 0.00 0.00 0.00 44 1015.7
20260830163505 83 4 2.0 2.0 0.00 0.00 0.00 43 1015.7
20260830163006 84 36 0.0 2.0 0.00 0.00 0.00 42 1015.7
20260830162505 84 211 0.0 2.0 0.00 0.00 0.00 41 1015.7
20260830162006 84 215 0.0 2.0 0.00 0.00 0.00 40 1015.7
20260830161505 85 236 2.0 2.0 0.00 0.00 0.00 39 1015.7
20260830161006 85 284 0.0 2.0 0.00 0.00 0.00 40 1015.7
20260830160505 85 280 1.0 2.0 0.00 0.00 0.00 38 1015.7
20260830160005 85 283 2.0 2.0 0.00 0.00 0.00 38 1015.7
20260830155506 86 297 1.0 3.0 0.00 0.00 0.00 37 1015.7
20260830155005 86 304 2.0 3.0 0.00 0.00 0.00 37 1015.7
20260830154506 86 220 0.0 2.0 0.00 0.00 0.00 36 1015.7